{"data":{"norad_id":57050,"intl_designator":"2023-088C","name":"STARLINK-5845","alt_names":[],"object_type":"PAYLOAD","status":"ACTIVE","operator":null,"country":"US","launch_date":"2023-06-22","launch_site_code":"AFWTR","launch_vehicle":null,"mission":null,"orbit_class":"UNKNOWN","rcs_meters":null,"size_class":null,"mass_kg":null,"dimensions":null,"purposes":["comms"],"wikipedia_slug":null,"has_3d_model":false,"image_url":null,"decayed_at":null,"tle_current":{"epoch":"2026-09-19T21:17:24.290880Z","epoch_age_seconds":171118,"freshness":"FRESH","line1":"1 57050U 23088C   26262.88708670  .00000008  00000+0  98082-5 0  9999","line2":"2 57050  43.0028  93.8205 0001500 241.6914 118.3786 15.27576257180039","mean_motion":15.27576257,"eccentricity":0.00015,"inclination_deg":43.0028,"raan_deg":93.8205,"arg_perigee_deg":241.6914,"mean_anomaly_deg":118.3786,"bstar":9.8082e-6,"rev_number":18003,"period_min":94.266979694226,"perigee_km":482.03112435548,"apogee_km":484.08948354667,"semimajor_km":6861.1973039511,"source":"CELESTRAK","updated_at":"2026-09-21T09:00:33.548167Z"}}}